Location: Unspecified
(41.1850°N, 73.2650°W)
Time: 08:09:21
(UTC+00:00)

BlueWalker 3 - Pass Details

Date: 26 February 2026
Orbit: 451 x 458 km, 53.2° (Epoch: 6 March)

Event Time Altitude Azimuth Distance (km) Brightness Sun altitude
Exits shadow 08:47:00 13° 100° (E) 1,433 4.9 -31.5°
Drops below altitude 10° 08:47:44 10° 89° (E) 1,596 5.3 -31.4°
Sets 08:50:29 0° 67° (ENE) 2,473 6.6 -30.9°
